sat.trackr.live / text

‹ back to catalog

STARLINK-36756

NORAD 67817 · 2026-032W

PAYLOAD ACTIVE UNKNOWN

§ Identity

Operator
Country
US
Launch date
2026-02-15
Launch site
AFWTR
Launch vehicle
Mass (kg)
RCS (m²)

Purposes: comms

External: N2YO · Heavens-Above · Gunter

§ Orbital elements

Epoch: 2026-05-25T02:27:10.099008Z

Period
93.91 min
Inclination
97.2849°
Eccentricity
0.0003065
Mean motion
15.33413232 rev/d
Perigee alt
463.5 km
Apogee alt
467.7 km
Semi-major
6,843.8 km
B*
1.9864e-4
RAAN
333.2361°
Arg perigee
92.0170°
Mean anomaly
268.1424°
Rev number
1,666

§ Raw data

STARLINK-367561 67817U 26032W   26145.10220022  .00006337  00000+0  19864-3 0  99982 67817  97.2849 333.2361 0003065  92.0170 268.1424 15.33413232 16667

JSON: /api/v1/satellites/67817 · /tle

For live sub-satellite position, see the globe view (requires WebGL).

§ Visibility from observer

Set your observer location to see the next 7 days of passes ≥ 10°. The values pass through the URL so the page stays shareable.

No JS? Fill the form by hand. The geolocation button needs JavaScript.